TimeCST,TemperatureF,Dew PointF,Humidity,Sea Level PressureIn,VisibilityMPH,Wind Direction,Wind SpeedMPH,Gust SpeedMPH,PrecipitationIn,Events,Conditions,WindDirDegrees,DateUTC
12:58 AM,5.7,-0.2,77,30.79,10.0,SW,6.9,-,N/A,,Clear,230,2013-11-12 06:58:00
1:58 AM,6.1,-0.0,76,30.76,10.0,SW,6.9,-,N/A,,Clear,230,2013-11-12 07:58:00
2:58 AM,7.2,0.9,75,30.75,10.0,SW,8.1,-,N/A,,Clear,220,2013-11-12 08:58:00
3:58 AM,7.9,0.9,73,30.75,10.0,SW,9.2,-,N/A,,Clear,220,2013-11-12 09:58:00
4:58 AM,9.3,1.8,71,30.74,10.0,SW,6.9,-,N/A,,Clear,230,2013-11-12 10:58:00
5:58 AM,10.0,2.8,73,30.71,10.0,SW,9.2,-,N/A,,Clear,230,2013-11-12 11:58:00
6:58 AM,11.7,4.3,72,30.69,10.0,SW,11.5,-,N/A,,Clear,220,2013-11-12 12:58:00
7:58 AM,13.6,6.3,72,30.68,10.0,SW,10.4,-,N/A,,Clear,220,2013-11-12 13:58:00
8:58 AM,19.9,10.8,68,30.66,10.0,SW,12.7,-,N/A,,Clear,230,2013-11-12 14:58:00
9:58 AM,26.1,14.5,62,30.63,10.0,SW,13.8,-,N/A,,Clear,220,2013-11-12 15:58:00
10:58 AM,30.4,16.0,55,30.58,10.0,SSW,17.3,-,N/A,,Clear,210,2013-11-12 16:58:00
11:58 AM,34.0,18.7,54,30.55,10.0,SSW,15.0,-,N/A,,Clear,200,2013-11-12 17:58:00
12:58 PM,37.0,21.0,52,30.53,10.0,SSW,16.1,-,N/A,,Clear,200,2013-11-12 18:58:00
1:58 PM,39.7,21.7,49,30.50,10.0,SSW,17.3,-,N/A,,Clear,200,2013-11-12 19:58:00
2:58 PM,40.6,22.1,48,30.46,10.0,South,13.8,-,N/A,,Clear,190,2013-11-12 20:58:00
3:58 PM,40.5,22.6,49,30.42,10.0,South,13.8,-,N/A,,Clear,190,2013-11-12 21:58:00
4:58 PM,36.3,23.0,59,30.40,10.0,South,10.4,-,N/A,,Clear,180,2013-11-12 22:58:00
5:58 PM,33.3,20.8,60,30.38,10.0,South,13.8,-,N/A,,Clear,180,2013-11-12 23:58:00
6:58 PM,31.6,20.1,62,30.34,10.0,SSW,15.0,-,N/A,,Clear,200,2013-11-13 00:58:00
7:58 PM,31.1,19.4,62,30.30,10.0,SSW,15.0,-,N/A,,Clear,210,2013-11-13 01:58:00
8:58 PM,29.1,19.8,68,30.27,10.0,South,13.8,-,N/A,,Clear,190,2013-11-13 02:58:00
9:58 PM,28.2,20.7,73,30.24,10.0,South,11.5,-,N/A,,Clear,190,2013-11-13 03:58:00
10:58 PM,27.7,21.9,79,30.20,10.0,South,13.8,-,N/A,,Clear,180,2013-11-13 04:58:00
11:58 PM,28.9,24.1,82,30.16,10.0,South,11.5,-,N/A,,Clear,190,2013-11-13 05:58:00